Regional Weather Roundup
Issued by NWS Charleston, WV

Home | Current Version | Previous Version | Text Only | Print | Product List | Glossary Off
Versions: 1 2 3 4 5 6 7 8 9 10 11 12 13 14 15 16 17 18 19 20 21 22 23 24 25 26 27 28 29 30 31 32 33 34 35 36 37 38 39 40 41 42 43 44 45 46 47 48 49 50

000
ASUS41 KRLX 021210
RWRRLX
West Virginia Regional Weather Roundup
National Weather Service Charleston WV
700 AM EST FRI DEC 02 2016

Note: "fair" indicates few or no clouds below 12,000 feet with no
significant weather and/or obstructions to visibility.

WVZ003-021300-
Northern Panhandle of West Virginia

CITY           SKY/WX    TMP DP  RH WIND       PRES   REMARKS
WHEELING       CLOUDY    33  26  75 W7        30.05R
$$

WVZ009-021300-
Northwest West Virginia

CITY           SKY/WX    TMP DP  RH WIND       PRES   REMARKS
PARKERSBURG    CLOUDY    38  27  64 W7        30.13R
$$

WVZ006-021300-
Western West Virginia

CITY           SKY/WX    TMP DP  RH WIND       PRES   REMARKS
HUNTINGTON     CLOUDY    31  28  89 SW3       30.15R
$$

WVZ015-021300-
West Central West Virginia

CITY           SKY/WX    TMP DP  RH WIND       PRES   REMARKS
CHARLESTON     PTCLDY    35  28  75 SW8       30.13R
$$

WVZ022-031-021300-
North Central West Virginia

CITY           SKY/WX    TMP DP  RH WIND       PRES   REMARKS
CLARKSBURG     CLOUDY    37  28  70 W9        30.07R
MORGANTOWN     CLOUDY    39  27  62 VRB5      30.06R
$$

WVZ025-035-042-045-021300-
Southern West Virginia

CITY           SKY/WX    TMP DP  RH WIND       PRES   REMARKS
BECKLEY        CLOUDY    31  26  82 W3        30.08R
LOGAN            N/A     32  28  86 CALM      30.12R
BLUEFIELD      CLEAR     29  24  82 W9        30.08R
LEWISBURG      PTCLDY    34  26  71 W9        30.07R
$$

WVZ047-021300-
Northern Mountains of West Virginia

CITY           SKY/WX    TMP DP  RH WIND       PRES   REMARKS
ELKINS         CLOUDY    35  26  69 VRB6      30.06R
$$

WVZ052-021300-
Eastern Panhandle of West Virginia

CITY           SKY/WX    TMP DP  RH WIND       PRES   REMARKS
MARTINSBURG    PTCLDY    38  25  59 W12       30.03R
PETERSBURG     CLOUDY    43  29  57 SW9       30.06R
$$




USA.gov is the U.S. government's official web portal to all federal, state and local government web resources and services.